TimeCDT,TemperatureF,Dew PointF,Humidity,Sea Level PressureIn,VisibilityMPH,Wind Direction,Wind SpeedMPH,Gust SpeedMPH,PrecipitationIn,Events,Conditions,WindDirDegrees,DateUTC
12:13 AM,57.2,53.6,88,30.00,10.0,Calm,Calm,-,N/A,,Clear,0,2013-08-28 05:13:00
12:34 AM,57.2,53.6,88,30.01,10.0,WNW,3.5,-,N/A,,Clear,290,2013-08-28 05:34:00
12:53 AM,57.2,53.6,88,30.01,10.0,West,3.5,-,N/A,,Clear,280,2013-08-28 05:53:00
1:13 AM,57.2,51.8,82,30.01,10.0,Calm,Calm,-,N/A,,Clear,0,2013-08-28 06:13:00
1:53 AM,55.4,51.8,88,30.00,10.0,WNW,3.5,-,N/A,,Clear,290,2013-08-28 06:53:00
2:14 AM,55.4,51.8,88,30.00,10.0,Calm,Calm,-,N/A,,Clear,0,2013-08-28 07:14:00
2:33 AM,55.4,51.8,88,30.00,10.0,NW,3.5,-,N/A,,Clear,310,2013-08-28 07:33:00
2:53 AM,55.4,51.8,88,30.00,10.0,WNW,4.6,-,N/A,,Clear,290,2013-08-28 07:53:00
3:14 AM,57.2,51.8,82,30.00,10.0,West,4.6,-,N/A,,Clear,270,2013-08-28 08:14:00
3:33 AM,57.2,51.8,82,30.00,10.0,West,3.5,-,N/A,,Clear,280,2013-08-28 08:33:00
3:54 AM,57.2,50.0,77,30.01,10.0,West,4.6,-,N/A,,Clear,270,2013-08-28 08:54:00
4:13 AM,55.4,50.0,82,30.02,10.0,Calm,Calm,-,N/A,,Clear,0,2013-08-28 09:13:00
4:34 AM,55.4,51.8,88,30.02,10.0,North,3.5,-,N/A,,Clear,350,2013-08-28 09:34:00
4:53 AM,55.4,51.8,88,30.02,10.0,NW,3.5,-,N/A,,Clear,320,2013-08-28 09:53:00
5:14 AM,59.0,53.6,82,30.02,10.0,West,4.6,-,N/A,,Clear,280,2013-08-28 10:14:00
5:33 AM,57.2,51.8,82,30.03,10.0,Calm,Calm,-,N/A,,Clear,0,2013-08-28 10:33:00
5:54 AM,55.4,50.0,82,30.03,10.0,Calm,Calm,-,N/A,,Clear,0,2013-08-28 10:54:00
6:13 AM,55.4,51.8,88,30.04,10.0,Calm,Calm,-,N/A,,Clear,0,2013-08-28 11:13:00
6:34 AM,55.4,51.8,88,30.05,10.0,Calm,Calm,-,N/A,,Clear,0,2013-08-28 11:34:00
6:53 AM,55.4,51.8,88,30.05,10.0,Calm,Calm,-,N/A,,Clear,0,2013-08-28 11:53:00
7:13 AM,57.2,51.8,82,30.05,10.0,Calm,Calm,-,N/A,,Clear,0,2013-08-28 12:13:00
7:33 AM,60.8,53.6,77,30.05,10.0,Calm,Calm,-,N/A,,Clear,0,2013-08-28 12:33:00
7:53 AM,64.4,55.4,73,30.06,-9999.0,Calm,Calm,-,N/A,,Clear,0,2013-08-28 12:53:00
8:14 AM,69.8,57.2,64,30.06,10.0,Calm,Calm,-,N/A,,Clear,0,2013-08-28 13:14:00
8:33 AM,73.4,57.2,57,30.06,10.0,Calm,Calm,-,N/A,,Clear,0,2013-08-28 13:33:00
8:53 AM,73.4,57.2,57,30.07,10.0,Calm,Calm,-,N/A,,Clear,0,2013-08-28 13:53:00
9:14 AM,75.2,57.2,53,30.07,10.0,South,4.6,-,N/A,,Clear,180,2013-08-28 14:14:00
9:33 AM,75.2,57.2,53,30.07,10.0,Calm,Calm,-,N/A,,Clear,0,2013-08-28 14:33:00
9:53 AM,75.2,57.2,53,30.08,10.0,South,4.6,-,N/A,,Clear,190,2013-08-28 14:53:00
10:14 AM,77.0,59.0,54,30.08,10.0,SW,4.6,-,N/A,,Clear,220,2013-08-28 15:14:00
10:33 AM,78.8,60.8,54,30.08,10.0,SSW,4.6,-,N/A,,Clear,200,2013-08-28 15:33:00
10:53 AM,78.8,60.8,54,30.08,10.0,South,3.5,-,N/A,,Clear,170,2013-08-28 15:53:00
11:14 AM,80.6,60.8,51,30.09,10.0,South,3.5,-,N/A,,Clear,180,2013-08-28 16:14:00
11:33 AM,80.6,57.2,45,30.08,10.0,South,6.9,-,N/A,,Clear,170,2013-08-28 16:33:00
11:53 AM,82.4,59.0,45,30.08,10.0,SSW,6.9,-,N/A,,Clear,210,2013-08-28 16:53:00
12:14 PM,82.4,57.2,42,30.08,10.0,South,6.9,-,N/A,,Clear,180,2013-08-28 17:14:00
12:33 PM,82.4,57.2,42,30.08,10.0,South,6.9,-,N/A,,Clear,170,2013-08-28 17:33:00
12:54 PM,82.4,57.2,42,-9999,10.0,South,4.6,-,N/A,,Clear,190,2013-08-28 17:54:00
1:13 PM,82.4,55.4,39,-9999,10.0,South,8.1,-,N/A,,Clear,190,2013-08-28 18:13:00
1:33 PM,82.4,57.2,42,-9999,10.0,South,5.8,-,N/A,,Clear,190,2013-08-28 18:33:00
1:53 PM,82.4,57.2,42,30.08,10.0,South,6.9,-,N/A,,Clear,170,2013-08-28 18:53:00
2:13 PM,80.6,57.2,45,30.08,10.0,South,10.4,16.1,N/A,,Clear,180,2013-08-28 19:13:00
2:34 PM,80.6,57.2,45,30.08,10.0,South,8.1,17.3,N/A,,Clear,190,2013-08-28 19:34:00
2:53 PM,80.6,57.2,45,30.08,10.0,South,8.1,17.3,N/A,,Clear,170,2013-08-28 19:53:00
3:13 PM,80.6,60.8,51,30.08,10.0,South,8.1,-,N/A,,Clear,170,2013-08-28 20:13:00
3:34 PM,78.8,60.8,54,30.07,10.0,SSW,8.1,-,N/A,,Clear,200,2013-08-28 20:34:00
3:53 PM,80.6,60.8,51,30.07,10.0,South,6.9,-,N/A,,Clear,170,2013-08-28 20:53:00
4:13 PM,78.8,59.0,51,30.07,10.0,South,5.8,-,N/A,,Clear,190,2013-08-28 21:13:00
4:33 PM,75.2,57.2,53,30.08,10.0,South,8.1,-,N/A,,Clear,190,2013-08-28 21:33:00
4:53 PM,75.2,57.2,53,30.07,10.0,SSW,5.8,-,N/A,,Clear,210,2013-08-28 21:53:00
5:13 PM,75.2,59.0,57,30.07,10.0,South,5.8,-,N/A,,Clear,190,2013-08-28 22:13:00
5:33 PM,73.4,59.0,61,30.07,10.0,South,6.9,-,N/A,,Clear,190,2013-08-28 22:33:00
5:53 PM,73.4,60.8,65,30.07,10.0,South,6.9,-,N/A,,Clear,190,2013-08-28 22:53:00
6:14 PM,73.4,60.8,65,30.07,10.0,South,5.8,-,N/A,,Clear,190,2013-08-28 23:14:00
6:34 PM,73.4,60.8,65,30.07,10.0,SSW,4.6,-,N/A,,Clear,200,2013-08-28 23:34:00
6:53 PM,73.4,60.8,65,30.07,10.0,SSW,3.5,-,N/A,,Clear,200,2013-08-28 23:53:00
7:13 PM,71.6,60.8,69,30.07,10.0,Calm,Calm,-,N/A,,Clear,0,2013-08-29 00:13:00
7:33 PM,69.8,60.8,73,30.08,10.0,Calm,Calm,-,N/A,,Clear,0,2013-08-29 00:33:00
7:53 PM,68.0,60.8,78,30.08,10.0,SSW,3.5,-,N/A,,Clear,210,2013-08-29 00:53:00
8:13 PM,66.2,60.8,83,30.08,10.0,Calm,Calm,-,N/A,,Clear,0,2013-08-29 01:13:00
8:33 PM,66.2,60.8,83,30.08,10.0,SSW,3.5,-,N/A,,Clear,210,2013-08-29 01:33:00
8:53 PM,68.0,62.6,83,30.08,10.0,SW,3.5,-,N/A,,Clear,230,2013-08-29 01:53:00
9:14 PM,68.0,62.6,83,30.09,10.0,SW,3.5,-,N/A,,Clear,220,2013-08-29 02:14:00
9:33 PM,68.0,62.6,83,30.09,10.0,SSW,3.5,-,N/A,,Clear,210,2013-08-29 02:33:00
9:52 PM,68.0,62.6,83,30.08,10.0,SW,3.5,-,N/A,,Clear,220,2013-08-29 02:52:00
10:14 PM,68.0,62.6,83,30.08,10.0,SW,3.5,-,N/A,,Clear,220,2013-08-29 03:14:00
10:33 PM,69.8,62.6,78,30.09,10.0,SW,3.5,-,N/A,,Clear,230,2013-08-29 03:33:00
10:53 PM,68.0,62.6,83,30.08,10.0,SSW,3.5,-,N/A,,Clear,210,2013-08-29 03:53:00
11:13 PM,66.2,62.6,88,30.08,10.0,SSW,4.6,-,N/A,,Clear,210,2013-08-29 04:13:00
11:34 PM,68.0,62.6,83,30.07,10.0,SSW,5.8,-,N/A,,Clear,210,2013-08-29 04:34:00
11:53 PM,69.8,62.6,78,30.07,10.0,Calm,Calm,-,N/A,,Clear,0,2013-08-29 04:53:00